Regional Weather Roundup
Issued by NWS

Home | Current Version | Previous Version | Graphics & Text | Print | Product List | Glossary On
Versions: 1 2 3 4 5 6 7 8 9 10 11 12 13 14 15 16 17 18 19 20 21 22 23 24 25 26 27 28 29 30 31 32 33 34 35 36 37 38 39 40 41 42 43 44 45 46 47 48 49 50
751
ASUS44 KMEG 201510
RWRTN
TENNESSEE HOURLY STATE WEATHER ROUNDUP
NATIONAL WEATHER SERVICE MEMPHIS TN
1000 AM CDT SUN AUG 20 2017

TNZ002-004-019-021-049-052-054-088>092-201600-
WEST TENNESSEE

CITY           SKY/WX    TMP DP  RH WIND       PRES   REMARKS
MEMPHIS INTL   PTSUNNY   89  77  67 VRB5      30.08R HX 101
NWS MEMPHIS      N/A     88 N/A N/A MISG        N/A
JACKSON        SUNNY     86  76  71 CALM      30.08R HX  96
DYERSBURG      SUNNY     85  77  77 SE6       30.09R HX  95
SOMERVILLE     SUNNY     88  77  70 CALM      30.07S HX 100
COVINGTON      SUNNY     86  77  74 CALM      30.07S HX  97
UNION CITY     SUNNY     84  75  74 S5        30.08R HX  92
BOLIVAR        SUNNY     86  75  70 VRB3      30.08R HX  95
PARIS          SUNNY     84  75  74 S5        30.09S HX  92
HUNTINGDON     SUNNY     84  73  70 SE3       30.09R HX  91
LEXINGTON      SUNNY     84  73  70 CALM      30.09S HX  91
SELMER         SUNNY     86  75  70 CALM      30.09R HX  95
SAVANNAH       SUNNY     86  75  70 CALM      30.08R HX  95
$$

TNZ008-025-027-028-033-062-065-066-201600-
NORTH MIDDLE TENNESSEE

CITY           SKY/WX    TMP DP  RH WIND       PRES   REMARKS
NASHVILLE      MOSUNNY   86  72  62 SE5       30.11R HX  92
PORTLAND       SUNNY     84  73  70 CALM      30.10S HX  91
CLARKSVILLE    SUNNY     84  72  67 SE5       30.10R
SMYRNA         SUNNY     85  71  63 CALM      30.12R HX  90
COOKEVILLE     SUNNY     82  70  65 CALM      30.13S
GALLATIN       SUNNY     84  72  65 CALM      30.13S
CROSSVILLE     SUNNY     81  65  58 NE5       30.19R
$$

TNZ061-075-076-078-094-096-097-201600-
SOUTH MIDDLE TENNESSEE

CITY           SKY/WX    TMP DP  RH WIND       PRES   REMARKS
FAYETTEVILLE   SUNNY     82  72  69 VRB3      30.12R
TULLAHOMA      SUNNY     82  70  65 CALM      30.14S
WINCHESTER     MOSUNNY   84  72  65 E5        30.12S
MCMINNVILLE    MOSUNNY   84  73  70 CALM      30.14R HX  91
COLUMBIA       SUNNY     82  75  78 CALM      30.09R HAZE
SHELBYVILLE    MOSUNNY   84  72  65 CALM      30.12R
$$

TNZ017-018-042-046-047-201600-
NORTHEAST TENNESSEE

CITY           SKY/WX    TMP DP  RH WIND       PRES   REMARKS
TRI CITIES     SUNNY     77  69  76 CALM      30.18R
ELIZABETHTON   SUNNY     79  66  65 CALM      30.18S
$$

TNZ012-013-036-069-073-074-201600-
CENTRAL EAST TENNESSEE

CITY           SKY/WX    TMP DP  RH WIND       PRES   REMARKS
KNOXVILLE      SUNNY     80  67  64 CALM      30.14R
OAK RIDGE      SUNNY     82  69  64 CALM      30.16R
DOWNTOWN KNOXV SUNNY     81  70  69 CALM      30.14R
GATLINBURG     SUNNY     81  64  57 CALM      30.14R
MORRISTOWN     SUNNY     81  68  65 CALM      30.16R
JACKSBORO      SUNNY     79  68  69 CALM      30.20R
$$

TNZ083-085-099-201600-
SOUTHEAST TENNESSEE

CITY           SKY/WX    TMP DP  RH WIND       PRES   REMARKS
CHATTANOOGA    MOSUNNY   82  70  66 CALM      30.13R
DAYTON         SUNNY     81  75  83 N3        30.13S
$$

SKY/WX REPORTED AS FAIR MEANS FEW OR NO CLOUDS BELOW
12 THOUSAND FEET.





USA.gov is the U.S. government's official web portal to all federal, state and local government web resources and services.